Regional Weather Roundup
Issued by NWS Little Rock, AR

Home | Current Version | Previous Version | Graphics & Text | Print | Product List | Glossary On
Versions: 1 2 3 4 5 6 7 8 9 10 11 12 13 14 15 16 17 18 19 20 21 22 23 24 25 26 27 28 29 30 31 32 33 34 35 36 37 38 39 40 41 42 43 44 45 46 47 48 49 50
000
ASUS44 KLZK 230205
RWRLZK

WEATHER ROUNDUP FOR ARKANSAS
NATIONAL WEATHER SERVICE LITTLE ROCK AR
900 PM CDT MON SEP 22 2014

NOTE: "FAIR" INDICATES FEW OR NO CLOUDS BELOW 12,000 FEET WITH NO
SIGNIFICANT WEATHER AND/OR OBSTRUCTIONS TO VISIBILITY.

ARZ001-003-010-029-230300-
NORTHWEST ARKANSAS

CITY           SKY/WX    TMP DP  RH WIND       PRES   REMARKS
FAYETTEVILLE   CLEAR     56  55  97 S3        30.23R
FORT SMITH     CLEAR     68  54  60 CALM      30.18R
HARRISON       CLEAR     57  52  83 CALM      30.24R
BENTONVILLE    PTCLDY    64  50  59 E5        30.23S
ROGERS         PTCLDY    63  52  67 E5        30.24R
SILOAM SPGS    CLEAR     63  48  59 E3        30.24R
HIGHFILL       PTCLDY    61  53  75 CALM      30.22R
SPRINGDALE     PTCLDY    63  55  77 CALM      30.24S
$$

ARZ004-005-016-230300-
NORTH CENTRAL ARKANSAS

CITY           SKY/WX    TMP DP  RH WIND       PRES   REMARKS
BATESVILLE     CLEAR     64  48  55 NE3       30.22R
FLIPPIN        CLEAR     61  48  63 CALM      30.23R
MTN HOME       CLEAR     60  53  77 CALM      30.22R
$$

ARZ040-041-230300-
WEST CENTRAL ARKANSAS

CITY           SKY/WX    TMP DP  RH WIND       PRES   REMARKS
MENA             N/A     59  55  88 CALM      30.20R
MOUNT IDA      CLEAR     61  57  87 CALM      30.18R
$$

ARZ009-017-025-026-028-230300-
NORTHEAST ARKANSAS

CITY           SKY/WX    TMP DP  RH WIND       PRES   REMARKS
CORNING          N/A     61  52  72 NE5       30.22S
JONESBORO      CLEAR     58  52  80 CALM      30.21R
NEWPORT        CLEAR     60  52  75 NE3       30.22R
WALNUT RIDGE   CLEAR     63  52  67 N3        30.20S
BLYTHEVILLE    CLEAR     55  52  89 N5        30.22R
$$

ARZ022-023-033-042-044-230300-
CENTRAL ARKANSAS

CITY           SKY/WX    TMP DP  RH WIND       PRES   REMARKS
LITTLE ROCK    PTCLDY    65  52  62 NE6       30.19R
N LITTLE ROCK  PTCLDY    65  54  67 NE7       30.19R
JACKSONVILLE   CLEAR     62  52  71 NE6       30.19R
SEARCY         CLEAR     64  50  60 NE7       30.21R
HOT SPRINGS    CLEAR     68  52  56 CALM      30.19R
RUSSELLVILLE   CLEAR     62  56  80 CALM      30.19R
CLINTON        FAIR      59  57  94 CALM      30.22S
$$

ARZ036-230300-
EAST ARKANSAS

CITY           SKY/WX    TMP DP  RH WIND       PRES   REMARKS
WEST MEMPHIS   CLEAR     63  53  70 N6        30.18R
$$

ARZ050-053-066-070-073-230300-
SOUTHWEST ARKANSAS

CITY           SKY/WX    TMP DP  RH WIND       PRES   REMARKS
ARKADELPHIA    FAIR      63  59  87 N3        30.18R
CAMDEN         CLEAR     59  54  82 CALM      30.16R
TEXARKANA      CLEAR     64  56  75 CALM      30.16R
EL DORADO      CLEAR     66  55  67 N6        30.16R
DE QUEEN       CLEAR     63  59  87 CALM      30.15R
$$

ARZ056-057-069-230300-
SOUTHEAST ARKANSAS

CITY           SKY/WX    TMP DP  RH WIND       PRES   REMARKS
PINE BLUFF     CLEAR     65  54  67 N6        30.18R
STUTTGART      CLEAR     61  54  77 N9        30.19R
MONTICELLO     CLEAR     65  53  65 NE3       30.16R

$$





USA.gov is the U.S. government's official web portal to all federal, state and local government web resources and services.